Year,Month,Day,Hour,Minute,Value (Times are PST for temperature in C)
2019,09,29,00,00,8.80
2019,09,29,00,01,8.80
2019,09,29,00,02,8.80
2019,09,29,00,03,8.80
2019,09,29,00,04,8.90
2019,09,29,00,05,8.90
2019,09,29,00,06,8.90
2019,09,29,00,07,8.90
2019,09,29,00,08,9.00
2019,09,29,00,09,9.00
2019,09,29,00,10,9.10
2019,09,29,00,11,9.10
2019,09,29,00,12,9.10
2019,09,29,00,13,9.20
2019,09,29,00,14,9.20
2019,09,29,00,15,9.30
2019,09,29,00,16,9.30
2019,09,29,00,17,9.30
2019,09,29,00,18,9.30
2019,09,29,00,19,9.40
2019,09,29,00,20,9.40
2019,09,29,00,21,9.50
2019,09,29,00,22,9.60
2019,09,29,00,23,9.60
2019,09,29,00,24,9.70
2019,09,29,00,25,9.70
2019,09,29,00,26,9.80
2019,09,29,00,27,9.80
2019,09,29,00,28,9.80
2019,09,29,00,29,9.90
2019,09,29,00,30,9.90
2019,09,29,00,31,10.00
2019,09,29,00,32,10.00
2019,09,29,00,33,10.00
2019,09,29,00,34,10.10
2019,09,29,00,35,10.10
2019,09,29,00,36,10.10
2019,09,29,00,37,10.20
2019,09,29,00,38,10.20
2019,09,29,00,39,10.30
2019,09,29,00,40,10.30
2019,09,29,00,41,10.30
2019,09,29,00,42,10.30
2019,09,29,00,43,10.40
2019,09,29,00,44,10.40
2019,09,29,00,45,10.40
2019,09,29,00,46,10.40
2019,09,29,00,47,10.40
2019,09,29,00,48,10.40
2019,09,29,00,49,10.40
2019,09,29,00,50,10.50
2019,09,29,00,51,10.50
2019,09,29,00,52,10.50
2019,09,29,00,53,10.60
2019,09,29,00,54,10.60
2019,09,29,00,55,10.60
2019,09,29,00,56,10.70
2019,09,29,00,57,10.70
2019,09,29,00,58,10.80
2019,09,29,00,59,10.80
2019,09,29,01,00,10.90
2019,09,29,01,01,10.90
2019,09,29,01,02,10.90
2019,09,29,01,03,10.90
2019,09,29,01,04,10.90
2019,09,29,01,05,10.90
2019,09,29,01,06,11.00
2019,09,29,01,07,11.00
2019,09,29,01,08,11.00
2019,09,29,01,09,11.00
2019,09,29,01,10,11.00
2019,09,29,01,11,11.00
2019,09,29,01,12,11.00
2019,09,29,01,13,11.00
2019,09,29,01,14,11.00
2019,09,29,01,15,11.00
2019,09,29,01,16,11.00
2019,09,29,01,17,11.10
2019,09,29,01,18,11.10
2019,09,29,01,19,11.10
2019,09,29,01,20,11.10
2019,09,29,01,21,11.10
2019,09,29,01,22,11.10
2019,09,29,01,23,11.20
2019,09,29,01,24,11.20
2019,09,29,01,25,11.30
2019,09,29,01,26,11.30
2019,09,29,01,27,11.30
2019,09,29,01,28,11.30
2019,09,29,01,29,11.30
2019,09,29,01,30,11.40
2019,09,29,01,31,11.40
2019,09,29,01,32,11.40
2019,09,29,01,33,11.40
2019,09,29,01,34,11.40
2019,09,29,01,35,11.40
2019,09,29,01,36,11.40
2019,09,29,01,37,11.40
2019,09,29,01,38,11.40
2019,09,29,01,39,11.40
2019,09,29,01,40,11.40
2019,09,29,01,41,11.40
2019,09,29,01,42,11.40
2019,09,29,01,43,11.40
2019,09,29,01,44,11.40
2019,09,29,01,45,11.40
2019,09,29,01,46,11.50
2019,09,29,01,47,11.50
2019,09,29,01,48,11.50
2019,09,29,01,49,11.60
2019,09,29,01,50,11.60
2019,09,29,01,51,11.60
2019,09,29,01,52,11.60
2019,09,29,01,53,11.60
2019,09,29,01,54,11.60
2019,09,29,01,55,11.60
2019,09,29,01,56,11.60
2019,09,29,01,57,11.60
2019,09,29,01,58,11.60
2019,09,29,01,59,11.60
2019,09,29,02,00,11.60
2019,09,29,02,01,11.60
2019,09,29,02,02,11.60
2019,09,29,02,03,11.60
2019,09,29,02,04,11.60
2019,09,29,02,05,11.60
2019,09,29,02,06,11.60
2019,09,29,02,07,11.60
2019,09,29,02,08,11.50
2019,09,29,02,09,11.50
2019,09,29,02,10,11.50
2019,09,29,02,11,11.50
2019,09,29,02,12,11.50
2019,09,29,02,13,11.50
2019,09,29,02,14,11.50
2019,09,29,02,15,11.40
2019,09,29,02,16,11.40
2019,09,29,02,17,11.40
2019,09,29,02,18,11.40
2019,09,29,02,19,11.40
2019,09,29,02,20,11.40
2019,09,29,02,21,11.50
2019,09,29,02,22,11.50
2019,09,29,02,23,11.50
2019,09,29,02,24,11.50
2019,09,29,02,25,11.50
2019,09,29,02,26,11.50
2019,09,29,02,27,11.50
2019,09,29,02,28,11.50
2019,09,29,02,29,11.50
2019,09,29,02,30,11.50
2019,09,29,02,31,11.50
2019,09,29,02,32,11.50
2019,09,29,02,33,11.50
2019,09,29,02,34,11.50
2019,09,29,02,35,11.50
2019,09,29,02,36,11.60
2019,09,29,02,37,11.60
2019,09,29,02,38,11.60
2019,09,29,02,39,11.60
2019,09,29,02,40,11.60
2019,09,29,02,41,11.60
2019,09,29,02,42,11.60
2019,09,29,02,43,11.60
2019,09,29,02,44,11.60
2019,09,29,02,45,11.60
2019,09,29,02,46,11.60
2019,09,29,02,47,11.60
2019,09,29,02,48,11.50
2019,09,29,02,49,11.50
2019,09,29,02,50,11.50
2019,09,29,02,51,11.50
2019,09,29,02,52,11.50
2019,09,29,02,53,11.40
2019,09,29,02,54,11.50
2019,09,29,02,55,11.40
2019,09,29,02,56,11.40
2019,09,29,02,57,11.40
2019,09,29,02,58,11.40
2019,09,29,02,59,11.40
2019,09,29,03,00,11.40
2019,09,29,03,01,11.40
2019,09,29,03,02,11.40
2019,09,29,03,03,11.40
2019,09,29,03,04,11.40
2019,09,29,03,05,11.40
2019,09,29,03,06,11.40
2019,09,29,03,07,11.40
2019,09,29,03,08,11.40
2019,09,29,03,09,11.40
2019,09,29,03,10,11.40
2019,09,29,03,11,11.40
2019,09,29,03,12,11.40
2019,09,29,03,13,11.40
2019,09,29,03,14,11.50
2019,09,29,03,15,11.50
2019,09,29,03,16,11.50
2019,09,29,03,17,11.50
2019,09,29,03,18,11.60
2019,09,29,03,19,11.60
2019,09,29,03,20,11.60
2019,09,29,03,21,11.60
2019,09,29,03,22,11.70
2019,09,29,03,23,11.70
2019,09,29,03,24,11.70
2019,09,29,03,25,11.60
2019,09,29,03,26,11.60
2019,09,29,03,27,11.60
2019,09,29,03,28,11.60
2019,09,29,03,29,11.60
2019,09,29,03,30,11.60
2019,09,29,03,31,11.60
2019,09,29,03,32,11.60
2019,09,29,03,33,11.60
2019,09,29,03,34,11.60
2019,09,29,03,35,11.60
2019,09,29,03,36,11.60
2019,09,29,03,37,11.60
2019,09,29,03,38,11.70
2019,09,29,03,39,11.70
2019,09,29,03,40,11.70
2019,09,29,03,41,11.70
2019,09,29,03,42,11.70
2019,09,29,03,43,11.70
2019,09,29,03,44,11.60
2019,09,29,03,45,11.60
2019,09,29,03,46,11.60
2019,09,29,03,47,11.60
2019,09,29,03,48,11.60
2019,09,29,03,49,11.60
2019,09,29,03,50,11.60
2019,09,29,03,51,11.60
2019,09,29,03,52,11.60
2019,09,29,03,53,11.60
2019,09,29,03,54,11.60
2019,09,29,03,55,11.60
2019,09,29,03,56,11.60
2019,09,29,03,57,11.60
2019,09,29,03,58,11.60
2019,09,29,03,59,11.60
2019,09,29,04,00,11.60
2019,09,29,04,01,11.60
2019,09,29,04,02,11.60
2019,09,29,04,03,11.50
2019,09,29,04,04,11.50
2019,09,29,04,05,11.40
2019,09,29,04,06,11.40
2019,09,29,04,07,11.40
2019,09,29,04,08,11.40
2019,09,29,04,09,11.40
2019,09,29,04,10,11.40
2019,09,29,04,11,11.40
2019,09,29,04,12,11.40
2019,09,29,04,13,11.40
2019,09,29,04,14,11.40
2019,09,29,04,15,11.40
2019,09,29,04,16,11.40
2019,09,29,04,17,11.40
2019,09,29,04,18,11.40
2019,09,29,04,19,11.40
2019,09,29,04,20,11.40
2019,09,29,04,21,11.40
2019,09,29,04,22,11.40
2019,09,29,04,23,11.40
2019,09,29,04,24,11.40
2019,09,29,04,25,11.40
2019,09,29,04,26,11.40
2019,09,29,04,27,11.30
2019,09,29,04,28,11.30
2019,09,29,04,29,11.30
2019,09,29,04,30,11.30
2019,09,29,04,31,11.30
2019,09,29,04,32,11.30
2019,09,29,04,33,11.30
2019,09,29,04,34,11.30
2019,09,29,04,35,11.30
2019,09,29,04,36,11.30
2019,09,29,04,37,11.30
2019,09,29,04,38,11.30
2019,09,29,04,39,11.30
2019,09,29,04,40,11.30
2019,09,29,04,41,11.30
2019,09,29,04,42,11.30
2019,09,29,04,43,11.30
2019,09,29,04,44,11.30
2019,09,29,04,45,11.30
2019,09,29,04,46,11.30
2019,09,29,04,47,11.20
2019,09,29,04,48,11.20
2019,09,29,04,49,11.20
2019,09,29,04,50,11.20
2019,09,29,04,51,11.20
2019,09,29,04,52,11.20
2019,09,29,04,53,11.20
2019,09,29,04,54,11.20
2019,09,29,04,55,11.20
2019,09,29,04,56,11.20
2019,09,29,04,57,11.10
2019,09,29,04,58,11.10
2019,09,29,04,59,11.10
2019,09,29,05,00,11.10
2019,09,29,05,01,11.10
2019,09,29,05,02,11.20
2019,09,29,05,03,11.20
2019,09,29,05,04,11.10
2019,09,29,05,05,11.10
2019,09,29,05,06,11.10
2019,09,29,05,07,11.10
2019,09,29,05,08,11.10
2019,09,29,05,09,11.10
2019,09,29,05,10,11.00
2019,09,29,05,11,11.00
2019,09,29,05,12,11.00
2019,09,29,05,13,11.00
2019,09,29,05,14,10.90
2019,09,29,05,15,10.90
2019,09,29,05,16,10.90
2019,09,29,05,17,10.90
2019,09,29,05,18,10.90
2019,09,29,05,19,10.90
2019,09,29,05,20,10.90
2019,09,29,05,21,10.90
2019,09,29,05,22,10.90
2019,09,29,05,23,10.90
2019,09,29,05,24,10.90
2019,09,29,05,25,10.90
2019,09,29,05,26,10.90
2019,09,29,05,27,10.80
2019,09,29,05,28,10.80
2019,09,29,05,29,10.80
2019,09,29,05,30,10.80
2019,09,29,05,31,10.80
2019,09,29,05,32,10.80
2019,09,29,05,33,10.80
2019,09,29,05,34,10.80
2019,09,29,05,35,10.80
2019,09,29,05,36,10.80
2019,09,29,05,37,10.80
2019,09,29,05,38,10.80
2019,09,29,05,39,10.70
2019,09,29,05,40,10.70
2019,09,29,05,41,10.70
2019,09,29,05,42,10.70
2019,09,29,05,43,10.70
2019,09,29,05,44,10.70
2019,09,29,05,45,10.70
2019,09,29,05,46,10.70
2019,09,29,05,47,10.70
2019,09,29,05,48,10.70
2019,09,29,05,49,10.70
2019,09,29,05,50,10.70
2019,09,29,05,51,10.70
2019,09,29,05,52,10.70
2019,09,29,05,53,10.70
2019,09,29,05,54,10.70
2019,09,29,05,55,10.70
2019,09,29,05,56,10.70
2019,09,29,05,57,10.80
2019,09,29,05,58,10.80
2019,09,29,05,59,10.80
2019,09,29,06,00,10.80
2019,09,29,06,01,10.80
2019,09,29,06,02,10.80
2019,09,29,06,03,10.80
2019,09,29,06,04,10.80
2019,09,29,06,05,10.80
2019,09,29,06,06,10.80
2019,09,29,06,07,10.80
2019,09,29,06,08,10.80
2019,09,29,06,09,10.80
2019,09,29,06,10,10.90
2019,09,29,06,11,10.90
2019,09,29,06,12,11.00
2019,09,29,06,13,11.00
2019,09,29,06,14,11.10
2019,09,29,06,15,11.10
2019,09,29,06,16,11.10
2019,09,29,06,17,11.10
2019,09,29,06,18,11.10
2019,09,29,06,19,11.10
2019,09,29,06,20,11.10
2019,09,29,06,21,11.20
2019,09,29,06,22,11.20
2019,09,29,06,23,11.20
2019,09,29,06,24,11.10
2019,09,29,06,25,11.10
2019,09,29,06,26,11.10
2019,09,29,06,27,11.10
2019,09,29,06,28,11.00
2019,09,29,06,29,11.00
2019,09,29,06,30,11.00
2019,09,29,06,31,11.00
2019,09,29,06,32,11.10
2019,09,29,06,33,11.10
2019,09,29,06,34,11.10
2019,09,29,06,35,11.10
2019,09,29,06,36,11.10
2019,09,29,06,37,11.10
2019,09,29,06,38,11.10
2019,09,29,06,39,11.10
2019,09,29,06,40,11.10
2019,09,29,06,41,11.10
2019,09,29,06,42,11.10
2019,09,29,06,43,11.10
2019,09,29,06,44,11.10
2019,09,29,06,45,11.10
2019,09,29,06,46,11.10
2019,09,29,06,47,11.10
2019,09,29,06,48,11.10
2019,09,29,06,49,11.20
2019,09,29,06,50,11.20
2019,09,29,06,51,11.20
2019,09,29,06,52,11.10
2019,09,29,06,53,11.10
2019,09,29,06,54,11.10
2019,09,29,06,55,11.10
2019,09,29,06,56,11.10
2019,09,29,06,57,11.10
2019,09,29,06,58,11.10
2019,09,29,06,59,11.10
2019,09,29,07,00,11.10
2019,09,29,07,01,11.10
2019,09,29,07,02,11.10
2019,09,29,09,18,11.80
2019,09,29,09,19,11.80
2019,09,29,09,20,11.90
2019,09,29,09,21,11.90
2019,09,29,09,22,11.90
2019,09,29,09,23,11.90
2019,09,29,09,24,11.90
2019,09,29,09,25,12.00
2019,09,29,09,26,12.00
2019,09,29,09,27,12.00
2019,09,29,09,28,12.10
2019,09,29,09,29,12.10
2019,09,29,09,30,12.10
2019,09,29,09,31,12.20
2019,09,29,09,32,12.20
2019,09,29,09,33,12.20
2019,09,29,09,34,12.20
2019,09,29,09,35,12.20
2019,09,29,09,36,12.20
2019,09,29,09,37,12.20
2019,09,29,09,38,12.20
2019,09,29,09,39,12.20
2019,09,29,09,40,12.20
2019,09,29,09,41,12.20
2019,09,29,09,42,12.20
2019,09,29,09,43,12.20
2019,09,29,09,44,12.30
2019,09,29,09,45,12.30
2019,09,29,09,46,12.30
2019,09,29,09,47,12.30
2019,09,29,09,48,12.30
2019,09,29,09,49,12.30
2019,09,29,09,50,12.30
2019,09,29,09,51,12.40
2019,09,29,09,52,12.40
2019,09,29,09,53,12.40
2019,09,29,09,54,12.40
2019,09,29,09,55,12.50
2019,09,29,09,56,12.50
2019,09,29,09,57,12.60
2019,09,29,09,58,12.60
2019,09,29,09,59,12.60
2019,09,29,10,00,12.60
2019,09,29,10,01,12.60
2019,09,29,10,02,12.60
2019,09,29,10,03,12.70
2019,09,29,10,04,12.70
2019,09,29,10,05,12.70
2019,09,29,10,06,12.80
2019,09,29,10,07,12.80
2019,09,29,10,08,12.80
2019,09,29,10,09,12.80
2019,09,29,10,10,12.80
2019,09,29,10,11,12.80
2019,09,29,10,12,12.80
2019,09,29,10,13,12.90
2019,09,29,10,14,12.90
2019,09,29,10,15,13.00
2019,09,29,10,16,13.00
2019,09,29,10,17,13.10
2019,09,29,10,18,13.10
2019,09,29,10,19,13.10
2019,09,29,10,20,13.10
2019,09,29,10,21,13.00
2019,09,29,10,22,12.90
2019,09,29,10,23,12.90
2019,09,29,10,24,12.90
2019,09,29,10,25,12.80
2019,09,29,10,26,12.80
2019,09,29,10,27,12.80
2019,09,29,10,28,12.80
2019,09,29,10,29,12.90
2019,09,29,10,30,12.90
2019,09,29,10,31,12.90
2019,09,29,10,32,12.90
2019,09,29,10,33,12.90
2019,09,29,10,34,13.00
2019,09,29,10,35,13.00
2019,09,29,10,36,13.10
2019,09,29,10,37,13.10
2019,09,29,10,38,13.20
2019,09,29,10,39,13.20
2019,09,29,10,40,13.20
2019,09,29,10,41,13.30
2019,09,29,10,42,13.30
2019,09,29,10,43,13.30
2019,09,29,10,44,13.30
2019,09,29,10,45,13.30
2019,09,29,10,46,13.30
2019,09,29,10,47,13.30
2019,09,29,10,48,13.40
2019,09,29,10,49,13.40
2019,09,29,10,50,13.30
2019,09,29,10,51,13.30
2019,09,29,10,52,13.30
2019,09,29,10,53,13.30
2019,09,29,10,54,13.40
2019,09,29,10,55,13.40
2019,09,29,10,56,13.40
2019,09,29,10,57,13.50
2019,09,29,10,58,13.50
2019,09,29,10,59,13.50
2019,09,29,11,00,13.50
2019,09,29,11,01,13.50
2019,09,29,11,02,13.50
2019,09,29,11,03,13.50
2019,09,29,11,04,13.50
2019,09,29,11,05,13.50
2019,09,29,11,06,13.50
2019,09,29,11,07,13.50
2019,09,29,11,08,13.50
2019,09,29,11,09,13.50
2019,09,29,11,10,13.50
2019,09,29,11,11,13.50
2019,09,29,11,12,13.50
2019,09,29,11,13,13.50
2019,09,29,11,14,13.50
2019,09,29,11,15,13.50
2019,09,29,11,16,13.50
2019,09,29,11,17,13.60
2019,09,29,11,18,13.60
2019,09,29,11,19,13.70
2019,09,29,11,20,13.70
2019,09,29,11,21,13.80
2019,09,29,11,22,13.80
2019,09,29,11,23,13.80
2019,09,29,11,24,13.90
2019,09,29,11,25,13.90
2019,09,29,11,26,13.90
2019,09,29,11,27,13.90
2019,09,29,11,28,14.00
2019,09,29,11,29,14.10
2019,09,29,11,30,14.10
2019,09,29,11,31,14.20
2019,09,29,11,32,14.30
2019,09,29,11,33,14.30
2019,09,29,11,34,14.40
2019,09,29,11,35,14.50
2019,09,29,11,36,14.70
2019,09,29,11,37,14.80
2019,09,29,11,38,14.90
2019,09,29,11,39,14.90
2019,09,29,11,40,14.90
2019,09,29,11,41,14.90
2019,09,29,11,42,14.80
2019,09,29,11,43,14.80
2019,09,29,11,44,14.80
2019,09,29,11,45,14.70
2019,09,29,11,46,14.70
2019,09,29,11,47,14.70
2019,09,29,11,48,14.70
2019,09,29,11,49,14.60
2019,09,29,11,50,14.60
2019,09,29,11,51,14.60
2019,09,29,11,52,14.60
2019,09,29,11,53,14.60
2019,09,29,11,54,14.50
2019,09,29,11,55,14.50
2019,09,29,11,56,14.50
2019,09,29,11,57,14.50
2019,09,29,11,58,14.50
2019,09,29,11,59,14.60
2019,09,29,12,00,14.60
2019,09,29,12,01,14.70
2019,09,29,12,02,14.70
2019,09,29,12,03,14.80
2019,09,29,12,04,14.90
2019,09,29,12,05,14.90
2019,09,29,12,06,15.00
2019,09,29,12,07,15.00
2019,09,29,12,08,14.90
2019,09,29,12,09,14.90
2019,09,29,12,10,14.80
2019,09,29,12,11,14.70
2019,09,29,12,12,14.60
2019,09,29,12,13,14.50
2019,09,29,12,14,14.50
2019,09,29,12,15,14.50
2019,09,29,12,16,14.40
2019,09,29,12,17,14.30
2019,09,29,12,18,14.20
2019,09,29,12,19,14.20
2019,09,29,12,20,14.20
2019,09,29,12,21,14.20
2019,09,29,12,22,14.30
2019,09,29,12,23,14.40
2019,09,29,12,24,14.40
2019,09,29,12,25,14.50
2019,09,29,12,26,14.50
2019,09,29,12,27,14.60
2019,09,29,12,28,14.60
2019,09,29,12,29,14.60
2019,09,29,12,30,14.50
2019,09,29,12,31,14.40
2019,09,29,12,32,14.50
2019,09,29,12,33,14.60
2019,09,29,12,34,14.60
2019,09,29,12,35,14.70
2019,09,29,12,36,14.70
2019,09,29,12,37,14.80
2019,09,29,12,38,14.80
2019,09,29,12,39,14.90
2019,09,29,12,40,14.90
2019,09,29,12,41,14.90
2019,09,29,12,42,14.90
2019,09,29,12,43,14.90
2019,09,29,12,44,14.90
2019,09,29,12,45,14.80
2019,09,29,12,46,14.80
2019,09,29,12,47,14.70
2019,09,29,12,48,14.60
2019,09,29,12,49,14.60
2019,09,29,12,50,14.50
2019,09,29,12,51,14.50
2019,09,29,12,52,14.50
2019,09,29,12,53,14.50
2019,09,29,12,54,14.50
2019,09,29,12,55,14.50
2019,09,29,12,56,14.60
2019,09,29,12,57,14.70
2019,09,29,12,58,14.80
2019,09,29,12,59,14.90
2019,09,29,13,00,15.00
2019,09,29,13,01,15.00
2019,09,29,13,02,15.10
2019,09,29,13,03,15.10
2019,09,29,13,04,15.10
2019,09,29,13,05,15.10
2019,09,29,13,06,15.10
2019,09,29,13,07,15.20
2019,09,29,13,08,15.30
2019,09,29,13,09,15.30
2019,09,29,13,10,15.30
2019,09,29,13,11,15.30
2019,09,29,13,12,15.30
2019,09,29,13,13,15.30
2019,09,29,13,14,15.30
2019,09,29,13,15,15.30
2019,09,29,13,16,15.40
2019,09,29,13,17,15.40
2019,09,29,13,18,15.50
2019,09,29,13,19,15.50
2019,09,29,13,20,15.50
2019,09,29,13,21,15.50
2019,09,29,13,22,15.50
2019,09,29,13,23,15.50
2019,09,29,13,24,15.60
2019,09,29,13,25,15.60
2019,09,29,13,26,15.60
2019,09,29,13,27,15.60
2019,09,29,13,28,15.70
2019,09,29,13,29,15.70
2019,09,29,13,30,15.70
2019,09,29,13,31,15.70
2019,09,29,13,32,15.70
2019,09,29,13,33,15.70
2019,09,29,13,34,15.70
2019,09,29,13,35,15.70
2019,09,29,13,36,15.70
2019,09,29,13,37,15.70
2019,09,29,13,38,15.80
2019,09,29,13,39,15.80
2019,09,29,13,40,15.80
2019,09,29,13,41,15.80
2019,09,29,13,42,15.80
2019,09,29,13,43,15.80
2019,09,29,13,44,15.70
2019,09,29,13,45,15.70
2019,09,29,13,46,15.80
2019,09,29,13,47,15.80
2019,09,29,13,48,15.80
2019,09,29,13,49,15.90
2019,09,29,13,50,15.90
2019,09,29,13,51,16.00
2019,09,29,13,52,16.00
2019,09,29,13,53,16.00
2019,09,29,13,54,16.00
2019,09,29,13,55,16.00
2019,09,29,13,56,16.00
2019,09,29,13,57,15.90
2019,09,29,13,58,15.90
2019,09,29,13,59,15.80
2019,09,29,14,00,15.80
2019,09,29,14,01,15.80
2019,09,29,14,02,15.80
2019,09,29,14,03,15.80
2019,09,29,14,04,15.80
2019,09,29,14,05,15.80
2019,09,29,14,06,15.70
2019,09,29,14,07,15.70
2019,09,29,14,08,15.70
2019,09,29,14,09,15.70
2019,09,29,14,10,15.70
2019,09,29,14,11,15.80
2019,09,29,14,12,15.80
2019,09,29,14,13,15.80
2019,09,29,14,14,15.90
2019,09,29,14,15,16.00
2019,09,29,14,16,16.10
2019,09,29,14,17,16.00
2019,09,29,14,18,16.00
2019,09,29,14,19,15.80
2019,09,29,14,20,15.60
2019,09,29,14,21,15.50
2019,09,29,14,22,15.50
2019,09,29,14,23,15.50
2019,09,29,14,24,15.50
2019,09,29,14,25,15.60
2019,09,29,14,26,15.50
2019,09,29,14,27,15.50
2019,09,29,14,28,15.40
2019,09,29,14,29,15.40
2019,09,29,14,30,15.30
2019,09,29,14,31,15.30
2019,09,29,14,32,15.30
2019,09,29,14,33,15.20
2019,09,29,14,34,15.20
2019,09,29,14,35,15.20
2019,09,29,14,36,15.20
2019,09,29,14,37,15.10
2019,09,29,14,38,15.10
2019,09,29,14,39,15.10
2019,09,29,14,40,15.10
2019,09,29,14,41,15.10
2019,09,29,14,42,15.00
2019,09,29,14,43,15.00
2019,09,29,14,44,15.00
2019,09,29,14,45,15.10
2019,09,29,14,46,15.10
2019,09,29,14,47,15.20
2019,09,29,14,48,15.30
2019,09,29,14,49,15.30
2019,09,29,14,50,15.30
2019,09,29,14,51,15.30
2019,09,29,14,52,15.20
2019,09,29,14,53,15.20
2019,09,29,14,54,15.20
2019,09,29,14,55,15.10
2019,09,29,14,56,15.10
2019,09,29,14,57,15.10
2019,09,29,14,58,15.00
2019,09,29,14,59,15.00
2019,09,29,15,00,15.00
2019,09,29,15,01,15.00
2019,09,29,15,02,15.00
2019,09,29,15,03,15.00
2019,09,29,15,04,15.00
2019,09,29,15,05,14.90
2019,09,29,15,06,14.90
2019,09,29,15,07,14.90
2019,09,29,15,08,14.90
2019,09,29,15,09,14.90
2019,09,29,15,10,14.80
2019,09,29,15,11,14.80
2019,09,29,15,12,14.80
2019,09,29,15,13,14.70
2019,09,29,15,14,14.70
2019,09,29,15,15,14.70
2019,09,29,15,16,14.80
2019,09,29,15,17,14.80
2019,09,29,15,18,14.80
2019,09,29,15,19,14.80
2019,09,29,15,20,14.80
2019,09,29,15,21,14.80
2019,09,29,15,22,14.80
2019,09,29,15,23,14.70
2019,09,29,15,24,14.70
2019,09,29,15,25,14.70
2019,09,29,15,26,14.70
2019,09,29,15,27,14.60
2019,09,29,15,28,14.60
2019,09,29,15,29,14.50
2019,09,29,15,30,14.40
2019,09,29,15,31,14.30
2019,09,29,15,32,14.30
2019,09,29,15,33,14.30
2019,09,29,15,34,14.30
2019,09,29,15,35,14.30
2019,09,29,15,36,14.30
2019,09,29,15,37,14.40
2019,09,29,15,38,14.40
2019,09,29,15,39,14.50
2019,09,29,15,40,14.60
2019,09,29,15,41,14.70
2019,09,29,15,42,14.80
2019,09,29,15,43,14.80
2019,09,29,15,44,14.80
2019,09,29,15,45,14.80
2019,09,29,15,46,15.10
2019,09,29,15,47,15.20
2019,09,29,15,48,15.30
2019,09,29,15,49,15.40
2019,09,29,15,50,15.40
2019,09,29,15,51,15.50
2019,09,29,15,52,15.40
2019,09,29,15,53,15.40
2019,09,29,15,54,15.30
2019,09,29,15,55,15.30
2019,09,29,15,56,15.20
2019,09,29,15,57,15.20
2019,09,29,15,58,15.20
2019,09,29,15,59,15.20
2019,09,29,16,00,15.20
2019,09,29,16,01,15.20
2019,09,29,16,02,15.10
2019,09,29,16,03,15.10
2019,09,29,16,04,15.00
2019,09,29,16,05,14.90
2019,09,29,16,06,14.90
2019,09,29,16,07,14.80
2019,09,29,16,08,14.80
2019,09,29,16,09,14.80
2019,09,29,16,10,14.80
2019,09,29,16,11,14.80
2019,09,29,16,12,14.70
2019,09,29,16,13,14.70
2019,09,29,16,14,14.70
2019,09,29,16,15,14.70
2019,09,29,16,16,14.70
2019,09,29,16,17,14.70
2019,09,29,16,18,14.70
2019,09,29,16,19,14.70
2019,09,29,16,20,14.70
2019,09,29,16,21,14.70
2019,09,29,16,22,14.70
2019,09,29,16,23,14.60
2019,09,29,16,24,14.60
2019,09,29,16,25,14.60
2019,09,29,16,26,14.60
2019,09,29,16,27,14.60
2019,09,29,16,28,14.70
2019,09,29,16,29,14.70
2019,09,29,16,30,14.70
2019,09,29,16,31,14.70
2019,09,29,16,32,14.70
2019,09,29,16,33,14.70
2019,09,29,16,34,14.70
2019,09,29,16,35,14.70
2019,09,29,16,36,14.60
2019,09,29,16,37,14.60
2019,09,29,16,38,14.60
2019,09,29,16,39,14.50
2019,09,29,16,40,14.50
2019,09,29,16,41,14.50
2019,09,29,16,42,14.50
2019,09,29,16,43,14.50
2019,09,29,16,44,14.50
2019,09,29,16,45,14.50
2019,09,29,16,46,14.50
2019,09,29,16,47,14.60
2019,09,29,16,48,14.60
2019,09,29,16,49,14.60
2019,09,29,16,50,14.70
2019,09,29,16,51,14.70
2019,09,29,16,52,14.70
2019,09,29,16,53,14.70
2019,09,29,16,54,14.70
2019,09,29,16,55,14.70
2019,09,29,16,56,14.70
2019,09,29,16,57,14.70
2019,09,29,16,58,14.70
2019,09,29,16,59,14.70
2019,09,29,17,00,14.80
2019,09,29,17,01,14.80
2019,09,29,17,02,14.80
2019,09,29,17,03,14.80
2019,09,29,17,04,14.80
2019,09,29,17,05,14.80
2019,09,29,17,06,14.70
2019,09,29,17,07,14.70
2019,09,29,17,08,14.70
2019,09,29,17,09,14.70
2019,09,29,17,10,14.80
2019,09,29,17,11,14.80
2019,09,29,17,12,14.80
2019,09,29,17,13,14.80
2019,09,29,17,14,14.80
2019,09,29,17,15,14.80
2019,09,29,17,16,14.70
2019,09,29,17,17,14.70
2019,09,29,17,18,14.70
2019,09,29,17,19,14.70
2019,09,29,17,20,14.70
2019,09,29,17,21,14.70
2019,09,29,17,22,14.70
2019,09,29,17,23,14.70
2019,09,29,17,24,14.70
2019,09,29,17,25,14.60
2019,09,29,17,26,14.60
2019,09,29,17,27,14.60
2019,09,29,17,28,14.60
2019,09,29,17,29,14.60
2019,09,29,17,30,14.60
2019,09,29,17,31,14.70
2019,09,29,17,32,14.70
2019,09,29,17,33,14.70
2019,09,29,17,34,14.70
2019,09,29,17,35,14.70
2019,09,29,17,36,14.80
2019,09,29,17,37,14.80
2019,09,29,17,38,14.80
2019,09,29,17,39,14.70
2019,09,29,17,40,14.70
2019,09,29,17,41,14.70
2019,09,29,17,42,14.70
2019,09,29,17,43,14.60
2019,09,29,17,44,14.60
2019,09,29,17,45,14.60
2019,09,29,17,46,14.60
2019,09,29,17,47,14.60
2019,09,29,17,48,14.60
2019,09,29,17,49,14.50
2019,09,29,17,50,14.50
2019,09,29,17,51,14.50
2019,09,29,17,52,14.50
2019,09,29,17,53,14.50
2019,09,29,17,54,14.50
2019,09,29,17,55,14.60
2019,09,29,17,56,14.60
2019,09,29,17,57,14.60
2019,09,29,17,58,14.50
2019,09,29,17,59,14.50
2019,09,29,18,00,14.50
2019,09,29,18,01,14.50
2019,09,29,18,02,14.50
2019,09,29,18,03,14.40
2019,09,29,18,04,14.40
2019,09,29,18,05,14.40
2019,09,29,18,06,14.40
2019,09,29,18,07,14.30
2019,09,29,18,08,14.30
2019,09,29,18,09,14.30
2019,09,29,18,10,14.30
2019,09,29,18,11,14.30
2019,09,29,18,12,14.20
2019,09,29,18,13,14.20
2019,09,29,18,14,14.20
2019,09,29,18,15,14.20
2019,09,29,18,16,14.20
2019,09,29,18,17,14.10
2019,09,29,18,18,14.10
2019,09,29,18,19,14.10
2019,09,29,18,20,14.10
2019,09,29,18,21,14.10
2019,09,29,18,22,14.10
2019,09,29,18,23,14.00
2019,09,29,18,24,14.00
2019,09,29,18,25,14.00
2019,09,29,18,26,13.90
2019,09,29,18,27,13.90
2019,09,29,18,28,13.90
2019,09,29,18,29,13.90
2019,09,29,18,30,13.80
2019,09,29,18,31,13.80
2019,09,29,18,32,13.80
2019,09,29,18,33,13.80
2019,09,29,18,34,13.80
2019,09,29,18,35,13.80
2019,09,29,18,36,13.80
2019,09,29,18,37,13.80
2019,09,29,18,38,13.80
2019,09,29,18,39,13.70
2019,09,29,18,40,13.70
2019,09,29,18,41,13.70
2019,09,29,18,42,13.60
2019,09,29,18,43,13.60
2019,09,29,18,44,13.60
2019,09,29,18,45,13.50
2019,09,29,18,46,13.40
2019,09,29,18,47,13.40
2019,09,29,18,48,13.30
2019,09,29,18,49,13.30
2019,09,29,18,50,13.20
2019,09,29,18,51,13.20
2019,09,29,18,52,13.20
2019,09,29,18,53,13.20
2019,09,29,18,54,13.20
2019,09,29,18,55,13.10
2019,09,29,18,56,13.10
2019,09,29,18,57,13.10
2019,09,29,18,58,13.00
2019,09,29,18,59,12.90
2019,09,29,19,00,12.90
2019,09,29,19,01,12.90
2019,09,29,19,02,12.80
2019,09,29,19,03,12.80
2019,09,29,19,04,12.70
2019,09,29,19,05,12.70
2019,09,29,19,06,12.70
2019,09,29,19,07,12.60
2019,09,29,19,08,12.60
2019,09,29,19,09,12.50
2019,09,29,19,10,12.50
2019,09,29,19,11,12.40
2019,09,29,19,12,12.40
2019,09,29,19,13,12.40
2019,09,29,19,14,12.30
2019,09,29,19,15,12.30
2019,09,29,19,16,12.30
2019,09,29,19,17,12.20
2019,09,29,19,18,12.20
2019,09,29,19,19,12.20
2019,09,29,19,20,12.10
2019,09,29,19,21,12.10
2019,09,29,19,22,12.00
2019,09,29,19,23,12.00
2019,09,29,19,24,11.90
2019,09,29,19,25,11.90
2019,09,29,19,26,11.90
2019,09,29,19,27,11.80
2019,09,29,19,28,11.80
2019,09,29,19,29,11.80
2019,09,29,19,30,11.70
2019,09,29,19,31,11.70
2019,09,29,19,32,11.70
2019,09,29,19,33,11.60
2019,09,29,19,34,11.60
2019,09,29,19,35,11.60